[[{"header":{"parameterUnit":"m.s-1","parameterCategory":2,"la1":30.2991,"la2":30.254,"lo1":-89.0895,"lo2":-89.0444,"dy":0.0017,"dx":0.0017,"nx":28,"ny":28,"refTime":"2024-12-11T03:00:00:Z","depth":"0","parameterNumber":2,"parameterNumberName":"U-component_of_CURRENTS"},"data":[0,0,0,0,0,0,0,0,0,0,0,0,0,0,0,0,0,0,0,0,0,0,0,0,0,0,0,0,0,0,0,0,0,0,0,0,0,0,0,0,0,0,0,0,0,0,0,0,0,0,0,0,0,0,0,0,0,0,0.1431,0.1432,0,0.1435,0.1435,0.1434,0.141,0.141,0.1409,0.1409,0.1379,0.1378,0.1378,0,0,0,0,0,0,0,0,0,0,0,0,0,0.1409,0.141,0.1431,0.1432,0.1432,0.1435,0.1435,0.1434,0.141,0.141,0.1409,0.1409,0.1379,0.1378,0.1378,0,0,0,0,0,0,0,0,0,0,0,0,0,0.1413,0.141,0.1431,0.1423,0.1422,0.1435,0.1435,0.1434,0.141,0.141,0.1409,0.1409,0.1379,0.1378,0.1378,0.1385,0,0,0.1376,0.1375,0,0,0,0,0,0,0,0,0.1413,0.1414,0.1424,0.1423,0.1423,0.1424,0.1416,0.1417,0.141,0.1411,0.1409,0.1408,0.1393,0.1392,0.1389,0.1383,0.1382,0.1375,0.1375,0.1375,0.1375,0,0,0,0,0,0,0,0.1413,0.1413,0.1429,0.1424,0.1424,0.1421,0.1421,0.1416,0.1402,0.1411,0.141,0.1416,0.1392,0.139,0.1388,0.1382,0.1375,0.1375,0.1374,0.1374,0.1368,0.1368,0,0,0,0,0,0,0.142,0.1413,0.1429,0.143,0.142,0.1422,0.1421,0.1422,0.1403,0.1401,0.1417,0.1415,0.1391,0.1389,0.1387,0.1399,0.1375,0.1374,0.1374,0.1368,0.1368,0.1368,0,0,0,0,0,0,0.1419,0.1421,0.1429,0.1425,0.1426,0.1423,0.1424,0.1422,0.1419,0.1408,0.1404,0.1416,0.1391,0.1388,0.1384,0.1397,0.1374,0.1373,0.1367,0.1368,0.1368,0.142,0,0,0,0,0,0,0.1418,0.142,0.1423,0.1425,0.1426,0.1441,0.1425,0.1423,0.1425,0.1423,0.1406,0.1403,0.139,0.1385,0.1383,0.1396,0.1373,0.1367,0.1368,0.1368,0.1418,0.1422,0.1425,0,0,0,0,0,0.1417,0.1425,0.1422,0.1425,0.1429,0.1442,0.1443,0.1437,0.1426,0.143,0.1416,0.1403,0.1387,0.1385,0.1383,0.1395,0.1367,0.1367,0.1368,0.1416,0.1421,0.1425,0,0,0,0,0,0,0.142,0.1423,0.1421,0.1429,0.1438,0.144,0.1446,0.144,0.1432,0.1428,0.1409,0.1406,0.1406,0.1392,0.1391,0.1393,0.1374,0.1374,0.1411,0.1415,0.1419,0.1456,0.1372,0,0,0,0,0,0.1422,0.1424,0.1433,0.144,0.1446,0.1445,0.1449,0.1447,0.1444,0.1439,0.1427,0.1414,0.1408,0.1404,0.1395,0.14,0.141,0.1404,0.1408,0.1411,0.1439,0.146,0.147,0.137,0.137,0.137,0,0,0.1425,0.1428,0.143,0.144,0.1445,0.1461,0.1445,0.1457,0.1471,0.1438,0.1446,0.1428,0.1411,0.1415,0.1414,0.1405,0.1443,0.1412,0.1415,0.1442,0.1462,0.1472,0.1481,0.137,0.137,0.137,0,0,0.144,0.1437,0.1448,0.1459,0.1473,0.1473,0.1479,0.1483,0.1485,0.1492,0.1471,0.1464,0.1452,0.1447,0.1442,0.1462,0.1462,0.1451,0.1504,0.1524,0.1533,0.1541,0.1565,0.1575,0.1454,0.1454,0.1454,0,0.145,0.1462,0.1455,0.1475,0.1495,0.1481,0.1511,0.151,0.1511,0.1529,0.1501,0.1494,0.1473,0.149,0.1497,0.1474,0.1489,0.1489,0.1532,0.154,0.1548,0.157,0.158,0.1457,0.1456,0.1456,0.1456,0,0.1471,0.1491,0.1502,0.152,0.1538,0.156,0.1569,0.1579,0.1574,0.1581,0.1595,0.156,0.1557,0.1545,0.153,0.157,0.1564,0.1534,0.1526,0.1561,0.1581,0.1591,0.146,0.1459,0.1459,0.1458,0,0,0.1493,0.1513,0.1523,0.1533,0.1569,0.1575,0.1619,0.1655,0.1668,0.1667,0.1692,0.1682,0.1659,0.1652,0.1619,0.1642,0.1696,0.1622,0.1621,0.1658,0.1755,0.1811,0.1827,0.1678,0.168,0.1682,0.1748,0,0.1524,0.1551,0.1572,0.1609,0.1626,0.1651,0.1685,0.1713,0.1721,0.1732,0.1727,0.1725,0.1698,0.1683,0.1704,0.1692,0.1726,0.1682,0.1707,0.1708,0.1764,0.1842,0.1964,0.204,0.1757,0.1759,0.176,0,0.1556,0.1567,0.1608,0.1642,0.1655,0.1672,0.1719,0.1757,0.1794,0.18,0.1815,0.1795,0.1822,0.1776,0.1817,0.1793,0.1795,0.1791,0.1792,0.1842,0.1784,0.1958,0.2068,0.213,0.1775,0.1774,0.1773,0,0.1565,0.1599,0.1623,0.1638,0.1674,0.1701,0.1728,0.1777,0.1813,0.1844,0.1862,0.1873,0.1869,0.1888,0.1895,0.1857,0.1948,0.1877,0.1937,0.1939,0.2051,0.2061,0.224,0.1931,0.1931,0.1931,0.1931,0,0.1598,0.1608,0.1608,0.1632,0.1643,0.1688,0.1726,0.1761,0.1813,0.1858,0.1886,0.1901,0.1903,0.1945,0.1939,0.1998,0.1984,0.1989,0.1978,0.207,0.208,0.2141,0.2129,0.1934,0.1933,0.1933,0.1932,0,0.158,0.1605,0.1636,0.1667,0.1654,0.1673,0.1715,0.1746,0.1811,0.1868,0.1889,0.1939,0.2004,0.2035,0.2061,0.2062,0.211,0.2121,0.2238,0.2242,0.2327,0.2312,0.2288,0.2226,0.2187,0.2189,0.219,0,0.156,0.1571,0.1629,0.1639,0.1641,0.165,0.1667,0.1734,0.1774,0.1886,0.1914,0.2003,0.2078,0.2178,0.2215,0.2277,0.2201,0.2395,0.2341,0.2403,0.2376,0.219,0.2123,0.25,0.2504,0.2507,0.251,0,0.1517,0.1558,0.1578,0.1599,0.1618,0.1638,0.1663,0.1706,0.1813,0.1902,0.2028,0.2114,0.2225,0.2352,0.2436,0.2469,0.2395,0.2462,0.2509,0.2651,0.248,0.2393,0.2371,0.254,0.2537,0.2535,0.2533,0.2532,0.1476,0.1477,0.1528,0.1527,0.1566,0.1627,0.1663,0.1749,0.1872,0.2044,0.2093,0.2288,0.2479,0.2623,0.2626,0.2791,0.2563,0.2818,0.2797,0.2601,0.2552,0.2603,0.2761,0.276,0.2758,0.2757,0.2756,0,0.1428,0.1408,0.1428,0.1477,0.1507,0.1543,0.1647,0.1727,0.1903,0.211,0.2264,0.2589,0.2796,0.2915,0.3137,0.3165,0.2972,0.3158,0.2977,0.2888,0.2986,0.3018,0.3263,0.3263,0.3263,0.3263,0.3263,0.3262,0.138,0.1372,0.1379,0.1392,0.1416,0.1502,0.1586,0.1759,0.194,0.225,0.248,0.2614,0.2937,0.3371,0.3552,0.351,0.3287,0.325,0.3074,0.3272,0.3238,0.3206,0.3238,0.3525,0.3525,0.2937,0.2933,0.2931]},{"header":{"parameterUnit":"m.s-1","parameterCategory":2,"la1":30.2991,"la2":30.254,"lo1":-89.0895,"lo2":-89.0444,"dy":0.0017,"dx":0.0017,"nx":28,"ny":28,"refTime":"2024-12-11T03:00:00:Z","depth":"0","parameterNumber":3,"parameterNumberName":"V-component_of_CURRENTS"},"data":[0,0,0,0,0,0,0,0,0,0,0,0,0,0,0,0,0,0,0,0,0,0,0,0,0,0,0,0,0,0,0,0,0,0,0,0,0,0,0,0,0,0,0,0,0,0,0,0,0,0,0,0,0,0,0,0,0,0,-0.0509,-0.0509,0,-0.0486,-0.0486,-0.0485,-0.0481,-0.0481,-0.0481,-0.0482,-0.0457,-0.0456,-0.0455,0,0,0,0,0,0,0,0,0,0,0,0,0,-0.0563,-0.0562,-0.0509,-0.0509,-0.0509,-0.0486,-0.0486,-0.0485,-0.0481,-0.0481,-0.0481,-0.0482,-0.0457,-0.0456,-0.0455,0,0,0,0,0,0,0,0,0,0,0,0,0,-0.0539,-0.0562,-0.0509,-0.0504,-0.0504,-0.0486,-0.0486,-0.0485,-0.0481,-0.0481,-0.0481,-0.0482,-0.0457,-0.0456,-0.0455,-0.0439,0,0,-0.045,-0.045,0,0,0,0,0,0,0,0,-0.054,-0.0537,-0.0505,-0.0505,-0.0504,-0.0488,-0.0496,-0.047,-0.0481,-0.0488,-0.0482,-0.0482,-0.0467,-0.0465,-0.0459,-0.0437,-0.0436,-0.045,-0.045,-0.0449,-0.0449,0,0,0,0,0,0,0,-0.0542,-0.0538,-0.0499,-0.0505,-0.0504,-0.0508,-0.0505,-0.0491,-0.0475,-0.0488,-0.0488,-0.0486,-0.0467,-0.046,-0.0458,-0.0436,-0.045,-0.0449,-0.0448,-0.0448,-0.041,-0.0409,0,0,0,0,0,0,-0.0545,-0.0539,-0.05,-0.0498,-0.0525,-0.0507,-0.0503,-0.0492,-0.0475,-0.0473,-0.0486,-0.0486,-0.0462,-0.046,-0.0457,-0.0447,-0.0449,-0.0448,-0.0447,-0.041,-0.041,-0.0409,0,0,0,0,0,0,-0.0546,-0.0541,-0.0501,-0.052,-0.0515,-0.0506,-0.0493,-0.0491,-0.0484,-0.0474,-0.0472,-0.0481,-0.0462,-0.0459,-0.0439,-0.0446,-0.0447,-0.0446,-0.041,-0.041,-0.041,-0.042,0,0,0,0,0,0,-0.0548,-0.0542,-0.0533,-0.052,-0.0514,-0.0489,-0.0492,-0.049,-0.0483,-0.0483,-0.0469,-0.0467,-0.0462,-0.0441,-0.0438,-0.0444,-0.0445,-0.041,-0.041,-0.041,-0.042,-0.042,-0.042,0,0,0,0,0,-0.055,-0.0535,-0.0532,-0.0528,-0.0502,-0.0489,-0.0486,-0.0481,-0.0482,-0.0476,-0.0465,-0.0468,-0.0437,-0.044,-0.0436,-0.0441,-0.0411,-0.041,-0.041,-0.042,-0.042,-0.042,0,0,0,0,0,0,-0.0557,-0.0532,-0.053,-0.0509,-0.0501,-0.0489,-0.048,-0.0479,-0.0465,-0.0464,-0.0457,-0.0454,-0.0441,-0.0435,-0.0438,-0.0429,-0.0427,-0.0426,-0.0437,-0.0437,-0.0437,-0.0429,-0.0444,0,0,0,0,0,-0.0554,-0.0533,-0.052,-0.0504,-0.0497,-0.0489,-0.0482,-0.048,-0.0467,-0.0462,-0.0454,-0.0445,-0.0436,-0.0431,-0.042,-0.0409,-0.0425,-0.0412,-0.0412,-0.0413,-0.0404,-0.0432,-0.0434,-0.0408,-0.0408,-0.0408,0,0,-0.0554,-0.0537,-0.0527,-0.0504,-0.0495,-0.0483,-0.0485,-0.0473,-0.0464,-0.0461,-0.0443,-0.0441,-0.0431,-0.0422,-0.0417,-0.0419,-0.0433,-0.0412,-0.0412,-0.0403,-0.0431,-0.0434,-0.0437,-0.0408,-0.0408,-0.0408,0,0,-0.0543,-0.0526,-0.0506,-0.0496,-0.0481,-0.0477,-0.0474,-0.0461,-0.0454,-0.0442,-0.0438,-0.0436,-0.0422,-0.0418,-0.0415,-0.0406,-0.043,-0.0409,-0.0406,-0.0434,-0.0437,-0.0439,-0.0485,-0.0491,-0.0413,-0.0413,-0.0413,0,-0.0551,-0.0505,-0.0502,-0.0483,-0.046,-0.0474,-0.0445,-0.0451,-0.0436,-0.0417,-0.0438,-0.0411,-0.0421,-0.0397,-0.041,-0.0408,-0.0433,-0.0409,-0.0436,-0.0438,-0.0441,-0.0487,-0.0493,-0.0413,-0.0413,-0.0413,-0.0413,0,-0.0522,-0.0486,-0.0472,-0.0447,-0.0435,-0.0408,-0.0411,-0.0397,-0.0399,-0.0406,-0.0384,-0.0396,-0.0374,-0.0395,-0.0409,-0.0419,-0.0437,-0.0433,-0.0439,-0.0444,-0.0492,-0.0499,-0.0414,-0.0413,-0.0413,-0.0413,0,0,-0.0539,-0.0461,-0.0458,-0.0403,-0.0398,-0.0368,-0.0363,-0.0334,-0.0317,-0.0336,-0.0306,-0.0331,-0.0342,-0.0339,-0.0353,-0.0401,-0.0469,-0.0434,-0.0435,-0.0485,-0.055,-0.0559,-0.0568,-0.0476,-0.0477,-0.0477,-0.0586,0,-0.051,-0.0407,-0.0412,-0.0336,-0.0265,-0.0277,-0.0268,-0.0259,-0.027,-0.0261,-0.0284,-0.0286,-0.032,-0.0322,-0.0365,-0.0429,-0.0484,-0.0441,-0.0531,-0.0534,-0.0545,-0.0574,-0.0569,-0.0664,-0.0593,-0.0594,-0.0595,0,-0.0477,-0.039,-0.028,-0.0193,-0.0177,-0.0164,-0.0105,-0.0117,-0.0139,-0.0153,-0.0162,-0.0197,-0.0239,-0.0288,-0.0392,-0.0364,-0.0458,-0.053,-0.0535,-0.0539,-0.0554,-0.0642,-0.068,-0.0823,-0.0606,-0.0605,-0.0604,0,-0.0396,-0.0305,-0.0183,-0.0155,-0.0088,-0.005,-0.0047,-0.0062,-0.0054,-0.0097,-0.0097,-0.0145,-0.0164,-0.0274,-0.0418,-0.0412,-0.0563,-0.0562,-0.0657,-0.066,-0.0668,-0.067,-0.0855,-0.0657,-0.0657,-0.0656,-0.0656,0,-0.0319,-0.0213,-0.0122,-0.0055,0.0046,0.0043,0.0094,0.0072,0.0053,0.0043,-0.0036,-0.0033,-0.0168,-0.0263,-0.0404,-0.0549,-0.0544,-0.0663,-0.0686,-0.0674,-0.0674,-0.0806,-0.0892,-0.066,-0.0659,-0.0659,-0.0658,0,-0.0198,-0.0142,-0.0033,0.005,0.0095,0.0144,0.018,0.0209,0.0159,0.0149,0.0134,0.0057,-0.0077,-0.0231,-0.0424,-0.0516,-0.0764,-0.0739,-0.0726,-0.0744,-0.0929,-0.1015,-0.1175,-0.1271,-0.0839,-0.084,-0.084,0,-0.011,-0.0018,0.0044,0.0086,0.0135,0.0224,0.0283,0.0267,0.0281,0.0202,0.021,0.0092,0.0012,-0.025,-0.0454,-0.0688,-0.0827,-0.083,-0.0808,-0.0951,-0.1063,-0.1082,-0.1153,-0.0842,-0.0842,-0.0843,-0.0843,0,0.004,0.0031,0.0107,0.019,0.0255,0.0344,0.0417,0.044,0.0383,0.037,0.0306,0.0228,-0.001,-0.0214,-0.051,-0.0676,-0.0925,-0.0845,-0.0998,-0.1087,-0.1115,-0.1214,-0.0777,-0.0848,-0.0847,-0.0847,-0.0847,-0.0847,0.0103,0.0155,0.0201,0.029,0.0359,0.0436,0.0484,0.0529,0.054,0.0487,0.0404,0.0329,0.0026,-0.0353,-0.0602,-0.0986,-0.0977,-0.1085,-0.1182,-0.119,-0.1267,-0.0845,-0.093,-0.093,-0.093,-0.093,-0.093,0,0.016,0.0247,0.032,0.0396,0.0486,0.0512,0.0572,0.0601,0.0598,0.0589,0.053,0.0348,-0.0032,-0.041,-0.0916,-0.123,-0.1354,-0.1432,-0.1477,-0.154,-0.1172,-0.1155,-0.1286,-0.1286,-0.1286,-0.1286,-0.1285,-0.1285,0.0219,0.0303,0.035,0.0504,0.0582,0.0689,0.0696,0.071,0.0711,0.0701,0.0682,0.0626,0.0303,-0.0607,-0.1298,-0.1518,-0.1796,-0.1844,-0.1987,-0.1752,-0.1727,-0.1702,-0.1707,-0.1952,-0.1953,-0.229,-0.2294,-0.2297]}],[{"header":{"parameterUnit":"m.s-1","parameterCategory":2,"la1":30.2991,"la2":30.254,"lo1":-89.0895,"lo2":-89.0444,"dy":0.0017,"dx":0.0017,"nx":28,"ny":28,"refTime":"2024-12-11T03:00:00:Z","depth":"2","parameterNumber":2,"parameterNumberName":"U-component_of_CURRENTS"},"data":[0,0,0,0,0,0,0,0,0,0,0,0,0,0,0,0,0,0,0,0,0,0,0,0,0,0,0,0,0,0,0,0,0,0,0,0,0,0,0,0,0,0,0,0,0,0,0,0,0,0,0,0,0,0,0,0,0,0,0.1408,0.1409,0,0.1413,0.1413,0.1412,0.1388,0.1388,0.1388,0.1387,0.1357,0.1357,0.1356,0,0,0,0,0,0,0,0,0,0,0,0,0,0.1384,0.1384,0.1408,0.1409,0.1409,0.1413,0.1413,0.1412,0.1389,0.1388,0.1388,0.1387,0.1358,0.1357,0.1356,0,0,0,0,0,0,0,0,0,0,0,0,0,0.1389,0.1384,0.1408,0.14,0.14,0.1413,0.1413,0.1412,0.1389,0.1388,0.1388,0.1387,0.1358,0.1357,0.1356,0.1363,0,0,0.1354,0.1354,0,0,0,0,0,0,0,0,0.1388,0.1389,0.1401,0.1401,0.1401,0.1403,0.1393,0.1395,0.1389,0.1389,0.1387,0.1387,0.1372,0.137,0.1368,0.1362,0.136,0.1354,0.1354,0.1353,0.1353,0,0,0,0,0,0,0,0.1388,0.1389,0.1407,0.1402,0.1401,0.1398,0.1398,0.1393,0.138,0.1389,0.1388,0.1394,0.1371,0.1368,0.1367,0.136,0.1354,0.1354,0.1353,0.1353,0.1346,0.1347,0,0,0,0,0,0,0.1395,0.1389,0.1407,0.1407,0.1397,0.1399,0.1399,0.14,0.1381,0.1379,0.1395,0.1393,0.137,0.1368,0.1366,0.1378,0.1353,0.1353,0.1352,0.1346,0.1346,0.1347,0,0,0,0,0,0,0.1394,0.1396,0.1406,0.1401,0.1402,0.1401,0.1402,0.14,0.1397,0.1387,0.1383,0.1394,0.1369,0.1367,0.1363,0.1376,0.1353,0.1352,0.1346,0.1346,0.1346,0.1398,0,0,0,0,0,0,0.1393,0.1396,0.1399,0.1401,0.1403,0.1419,0.1403,0.1401,0.1404,0.1402,0.1385,0.1381,0.1369,0.1364,0.1362,0.1375,0.1351,0.1345,0.1346,0.1346,0.1396,0.14,0.1404,0,0,0,0,0,0.1392,0.1401,0.1399,0.1401,0.1407,0.142,0.142,0.1415,0.1404,0.1408,0.1394,0.1382,0.1365,0.1364,0.1362,0.1374,0.1345,0.1346,0.1346,0.1394,0.1399,0.1404,0,0,0,0,0,0,0.1395,0.1399,0.1397,0.1407,0.1416,0.1417,0.1424,0.1418,0.1411,0.1407,0.1388,0.1384,0.1385,0.1371,0.137,0.1372,0.1352,0.1352,0.1389,0.1394,0.1398,0.1434,0.1351,0,0,0,0,0,0.1397,0.14,0.1409,0.1417,0.1423,0.1423,0.1427,0.1425,0.1422,0.1418,0.1406,0.1392,0.1386,0.1383,0.1374,0.1378,0.1389,0.1382,0.1386,0.139,0.1417,0.1438,0.1447,0.1348,0.1348,0.1348,0,0,0.1401,0.1405,0.1406,0.1418,0.1422,0.1438,0.1423,0.1435,0.1449,0.1416,0.1425,0.1406,0.1389,0.1393,0.1392,0.1383,0.1422,0.139,0.1394,0.142,0.144,0.145,0.1459,0.1349,0.1349,0.1349,0,0,0.1416,0.1414,0.1425,0.1435,0.1449,0.1451,0.1456,0.146,0.1463,0.1471,0.1449,0.1443,0.143,0.1425,0.1421,0.144,0.144,0.1429,0.1482,0.1502,0.1511,0.1519,0.1543,0.1553,0.1432,0.1432,0.1432,0,0.1426,0.1438,0.1432,0.1451,0.1468,0.1458,0.1485,0.1487,0.1489,0.1507,0.1479,0.1471,0.1451,0.1467,0.1474,0.1452,0.1468,0.1467,0.151,0.1518,0.1525,0.1548,0.1559,0.1435,0.1434,0.1434,0.1434,0,0.1447,0.1465,0.1476,0.1494,0.1508,0.1529,0.154,0.1554,0.1551,0.1558,0.1571,0.1536,0.1532,0.1521,0.1508,0.1547,0.1542,0.1512,0.1504,0.1539,0.156,0.157,0.1438,0.1437,0.1437,0.1436,0,0,0.147,0.1487,0.1496,0.1505,0.1537,0.1542,0.1587,0.1625,0.1644,0.1642,0.1665,0.1657,0.1633,0.1626,0.1593,0.1617,0.1673,0.1599,0.1599,0.1635,0.1733,0.1789,0.1805,0.1656,0.1658,0.1659,0.1726,0,0.1501,0.1524,0.1541,0.1574,0.1588,0.1613,0.1648,0.1679,0.1692,0.1706,0.17,0.1698,0.1671,0.1656,0.1677,0.1668,0.1703,0.1659,0.1685,0.1686,0.1742,0.182,0.1539,0.1582,0.1736,0.1738,0.1739,0,0.1531,0.1539,0.1573,0.1602,0.1613,0.163,0.168,0.1718,0.1761,0.1771,0.1785,0.1766,0.1793,0.1747,0.179,0.1765,0.177,0.1768,0.177,0.1819,0.1762,0.1571,0.1594,0.1755,0.1754,0.1753,0.1752,0,0.1542,0.1569,0.1587,0.1599,0.163,0.1657,0.1685,0.1739,0.1776,0.1815,0.1833,0.1843,0.1838,0.1859,0.187,0.1832,0.1926,0.1854,0.1915,0.1918,0.1686,0.1667,0.1909,0.1909,0.1909,0.1909,0.1909,0,0.1573,0.1578,0.1574,0.1596,0.1604,0.1643,0.1683,0.1724,0.1778,0.1825,0.1854,0.1868,0.1873,0.1916,0.1913,0.1974,0.196,0.1967,0.1957,0.1697,0.1679,0.1827,0.1816,0.1911,0.1911,0.191,0.191,0,0.1554,0.1575,0.1603,0.163,0.1616,0.1633,0.1674,0.1707,0.1775,0.1835,0.1857,0.1906,0.1973,0.2006,0.2037,0.2037,0.2077,0.21,0.1814,0.1774,0.2036,0.2027,0.2161,0.2164,0.2166,0.2168,0.217,0,0.1532,0.1539,0.1597,0.1606,0.1607,0.1614,0.1629,0.1697,0.1739,0.1853,0.1879,0.197,0.2023,0.2125,0.2031,0.2059,0.217,0.1955,0.1846,0.2095,0.207,0.2057,0.2045,0.153,0.1527,0.1524,0.1521,0,0.1484,0.1527,0.1546,0.1566,0.1585,0.1602,0.1625,0.1672,0.1779,0.1837,0.1964,0.2028,0.2024,0.1911,0.195,0.1926,0.1927,0.1905,0.2215,0.1552,0.1517,0.1489,0.1493,0.1495,0.1498,0.1499,0.1501,0.1502,0.1441,0.1442,0.1495,0.1493,0.1532,0.1593,0.1631,0.1574,0.1649,0.164,0.1853,0.1803,0.1817,0.165,0.1658,0.1628,0.1749,0.174,0.1739,0.1745,0.1702,0.1678,0.1677,0.168,0.1683,0.1686,0.1688,0,0.1389,0.1372,0.1392,0.1442,0.1462,0.1507,0.1613,0.1514,0.1471,0.1443,0.1447,0.135,0.1284,0.1345,0.1176,0.1263,0.1125,0.1338,0.1115,0.1142,0.1166,0.1086,0.0902,0.09,0.0899,0.0898,0,0,0.1336,0.1328,0.1336,0.1341,0.1368,0.1283,0.1366,0.1198,0.111,0.0952,0.0895,0.0925,0.1162,0.0915,0.0964,0.0912,0.0998,0.0872,0.1482,0.1232,0.1253,0.137,0.1277,0,0,0,0,0]},{"header":{"parameterUnit":"m.s-1","parameterCategory":2,"la1":30.2991,"la2":30.254,"lo1":-89.0895,"lo2":-89.0444,"dy":0.0017,"dx":0.0017,"nx":28,"ny":28,"refTime":"2024-12-11T03:00:00:Z","depth":"2","parameterNumber":3,"parameterNumberName":"V-component_of_CURRENTS"},"data":[0,0,0,0,0,0,0,0,0,0,0,0,0,0,0,0,0,0,0,0,0,0,0,0,0,0,0,0,0,0,0,0,0,0,0,0,0,0,0,0,0,0,0,0,0,0,0,0,0,0,0,0,0,0,0,0,0,0,-0.0475,-0.0475,0,-0.0453,-0.0453,-0.0452,-0.0448,-0.0449,-0.0449,-0.0449,-0.0424,-0.0424,-0.0423,0,0,0,0,0,0,0,0,0,0,0,0,0,-0.0526,-0.0525,-0.0475,-0.0475,-0.0475,-0.0453,-0.0453,-0.0452,-0.0448,-0.0449,-0.0449,-0.0449,-0.0425,-0.0424,-0.0423,0,0,0,0,0,0,0,0,0,0,0,0,0,-0.0503,-0.0525,-0.0475,-0.0471,-0.047,-0.0453,-0.0453,-0.0452,-0.0448,-0.0449,-0.0449,-0.0449,-0.0425,-0.0424,-0.0422,-0.0406,0,0,-0.0418,-0.0418,0,0,0,0,0,0,0,0,-0.0504,-0.0501,-0.0472,-0.0471,-0.047,-0.0455,-0.0462,-0.0437,-0.0448,-0.0456,-0.0449,-0.045,-0.0435,-0.0432,-0.0426,-0.0405,-0.0404,-0.0418,-0.0417,-0.0417,-0.0416,0,0,0,0,0,0,0,-0.0506,-0.0502,-0.0465,-0.0471,-0.0471,-0.0474,-0.0471,-0.0457,-0.0442,-0.0455,-0.0455,-0.0454,-0.0434,-0.0427,-0.0425,-0.0403,-0.0418,-0.0417,-0.0416,-0.0416,-0.0377,-0.0377,0,0,0,0,0,0,-0.0509,-0.0503,-0.0466,-0.0465,-0.049,-0.0473,-0.047,-0.0459,-0.0442,-0.0441,-0.0453,-0.0454,-0.043,-0.0427,-0.0425,-0.0414,-0.0417,-0.0415,-0.0415,-0.0377,-0.0377,-0.0377,0,0,0,0,0,0,-0.051,-0.0506,-0.0467,-0.0485,-0.0481,-0.0472,-0.0459,-0.0458,-0.0451,-0.0442,-0.044,-0.0449,-0.043,-0.0427,-0.0407,-0.0413,-0.0415,-0.0414,-0.0377,-0.0377,-0.0377,-0.0387,0,0,0,0,0,0,-0.0512,-0.0506,-0.0498,-0.0485,-0.048,-0.0456,-0.0459,-0.0457,-0.045,-0.0451,-0.0437,-0.0435,-0.043,-0.0409,-0.0406,-0.0411,-0.0412,-0.0378,-0.0377,-0.0377,-0.0387,-0.0388,-0.0388,0,0,0,0,0,-0.0513,-0.0499,-0.0497,-0.0493,-0.0469,-0.0455,-0.0453,-0.0448,-0.045,-0.0444,-0.0433,-0.0435,-0.0405,-0.0407,-0.0403,-0.0409,-0.0378,-0.0377,-0.0377,-0.0387,-0.0388,-0.0388,0,0,0,0,0,0,-0.0521,-0.0497,-0.0495,-0.0475,-0.0467,-0.0455,-0.0447,-0.0446,-0.0432,-0.0431,-0.0425,-0.0421,-0.0409,-0.0403,-0.0406,-0.0397,-0.0395,-0.0394,-0.0404,-0.0404,-0.0404,-0.0396,-0.0411,0,0,0,0,0,-0.0518,-0.0498,-0.0485,-0.047,-0.0464,-0.0456,-0.0449,-0.0447,-0.0435,-0.0429,-0.0421,-0.0412,-0.0403,-0.0399,-0.0387,-0.0376,-0.0392,-0.0379,-0.038,-0.038,-0.037,-0.0398,-0.04,-0.0375,-0.0375,-0.0375,0,0,-0.0518,-0.0502,-0.0492,-0.0471,-0.0461,-0.0449,-0.0452,-0.044,-0.0431,-0.0428,-0.041,-0.0408,-0.0399,-0.0389,-0.0384,-0.0386,-0.04,-0.0379,-0.038,-0.037,-0.0398,-0.0401,-0.0403,-0.0375,-0.0375,-0.0375,0,0,-0.0507,-0.0492,-0.0472,-0.0461,-0.0446,-0.0442,-0.044,-0.0427,-0.0421,-0.0409,-0.0405,-0.0403,-0.0389,-0.0385,-0.0382,-0.0373,-0.0397,-0.0376,-0.0373,-0.0401,-0.0403,-0.0405,-0.0452,-0.0458,-0.038,-0.038,-0.038,0,-0.0516,-0.0469,-0.0468,-0.0447,-0.042,-0.0439,-0.0407,-0.0416,-0.0402,-0.0384,-0.0405,-0.0377,-0.0388,-0.0362,-0.0377,-0.0375,-0.04,-0.0375,-0.0402,-0.0405,-0.0407,-0.0453,-0.046,-0.038,-0.038,-0.038,-0.038,0,-0.0486,-0.0448,-0.0434,-0.0407,-0.0392,-0.0364,-0.0369,-0.036,-0.0364,-0.0371,-0.0349,-0.0361,-0.0338,-0.036,-0.0375,-0.0385,-0.0403,-0.0399,-0.0405,-0.041,-0.0459,-0.0466,-0.0381,-0.0381,-0.038,-0.038,0,0,-0.0505,-0.0423,-0.0419,-0.0361,-0.0351,-0.0321,-0.0318,-0.0292,-0.028,-0.0299,-0.0268,-0.0293,-0.0304,-0.0301,-0.0316,-0.0364,-0.0435,-0.0399,-0.0401,-0.0451,-0.0516,-0.0525,-0.0534,-0.0441,-0.0442,-0.0443,-0.0553,0,-0.0474,-0.0367,-0.0367,-0.0286,-0.0211,-0.0224,-0.0216,-0.021,-0.0228,-0.0222,-0.0244,-0.0246,-0.0281,-0.0283,-0.0326,-0.0394,-0.0449,-0.0406,-0.0497,-0.05,-0.0512,-0.0541,-0.0365,-0.0448,-0.056,-0.0561,-0.0562,0,-0.044,-0.035,-0.0231,-0.0137,-0.0119,-0.0106,-0.0051,-0.0063,-0.0094,-0.0111,-0.012,-0.0155,-0.0197,-0.0247,-0.0352,-0.0324,-0.0421,-0.0495,-0.0501,-0.0504,-0.0521,-0.0454,-0.0456,-0.0573,-0.0572,-0.0572,-0.0571,0,-0.0361,-0.0262,-0.0134,-0.0101,-0.0028,0.0009,0.0011,-0.001,-0.0003,-0.0054,-0.0056,-0.0103,-0.012,-0.0232,-0.0381,-0.0375,-0.0528,-0.0527,-0.0624,-0.0626,-0.049,-0.0479,-0.0622,-0.0622,-0.0622,-0.0621,-0.0621,0,-0.0283,-0.0172,-0.0076,-0.0006,0.0099,0.0103,0.0152,0.0122,0.0102,0.009,0.0009,0.0012,-0.0125,-0.0221,-0.0365,-0.0513,-0.0507,-0.0629,-0.0652,-0.0491,-0.048,-0.0587,-0.0582,-0.0626,-0.0625,-0.0624,-0.0623,0,-0.0161,-0.0102,0.0012,0.0099,0.0146,0.0196,0.0236,0.0261,0.0208,0.0195,0.0179,0.0102,-0.0034,-0.0191,-0.0388,-0.0479,-0.0642,-0.0706,-0.0523,-0.0523,-0.0728,-0.0722,-0.0805,-0.0806,-0.0807,-0.0808,-0.0809,0,-0.007,0.0025,0.0087,0.013,0.0181,0.0273,0.0334,0.0316,0.0328,0.0248,0.0258,0.0137,0.007,-0.0194,-0.0323,-0.0538,-0.0682,-0.0621,-0.0575,-0.0731,-0.0746,-0.0738,-0.073,-0.0409,-0.0407,-0.0404,-0.0403,0,0.0086,0.0074,0.0151,0.0234,0.0298,0.0391,0.0466,0.0485,0.0429,0.0436,0.0371,0.0306,0.0134,0.0028,-0.0245,-0.0381,-0.0564,-0.0587,-0.0781,-0.0395,-0.0368,-0.0379,-0.0383,-0.0384,-0.0385,-0.0387,-0.0388,-0.0389,0.0151,0.0202,0.0245,0.0334,0.0404,0.048,0.0527,0.0664,0.0706,0.0739,0.0571,0.0554,0.0335,0.0148,-0.0115,-0.0355,-0.0377,-0.051,-0.0511,-0.0516,-0.0456,-0.0433,-0.045,-0.0452,-0.0454,-0.0456,-0.0457,0,0.0212,0.0295,0.0367,0.044,0.0539,0.0557,0.0615,0.0754,0.089,0.0931,0.096,0.0772,0.062,0.0294,0.0059,-0.0179,-0.0146,-0.0357,-0.0248,-0.0262,-0.0276,-0.0202,-0.013,-0.0131,-0.0132,-0.0133,0,0,0.0277,0.0358,0.0405,0.0564,0.0638,0.0873,0.088,0.1071,0.1167,0.1287,0.1273,0.124,0.0766,0.0608,0.0301,0.0091,-0.0038,0.005,-0.0163,-0.0001,-0.0013,-0.0293,-0.0186,0,0,0,0,0]}],[{"header":{"parameterUnit":"m.s-1","parameterCategory":2,"la1":30.2991,"la2":30.254,"lo1":-89.0895,"lo2":-89.0444,"dy":0.0017,"dx":0.0017,"nx":28,"ny":28,"refTime":"2024-12-11T03:00:00:Z","depth":"4","parameterNumber":2,"parameterNumberName":"U-component_of_CURRENTS"},"data":[0,0,0,0,0,0,0,0,0,0,0,0,0,0,0,0,0,0,0,0,0,0,0,0,0,0,0,0,0,0,0,0,0,0,0,0,0,0,0,0,0,0,0,0,0,0,0,0,0,0,0,0,0,0,0,0,0,0,0.0277,0.0278,0,0.0287,0.0287,0.0287,0.0288,0.0288,0.0288,0.0288,0.0302,0.0303,0.0303,0,0,0,0,0,0,0,0,0,0,0,0,0,0.0242,0.0242,0.0277,0.0278,0.0278,0.0287,0.0287,0.0287,0.0288,0.0288,0.0288,0.0288,0.0302,0.0303,0.0303,0,0,0,0,0,0,0,0,0,0,0,0,0,0.0254,0.0243,0.0277,0.028,0.0281,0.0287,0.0287,0.0287,0.0288,0.0288,0.0288,0.0288,0.0302,0.0303,0.0303,0.0307,0,0,0.0305,0.0305,0,0,0,0,0,0,0,0,0.0253,0.0255,0.028,0.028,0.0281,0.0288,0.028,0.0295,0.0288,0.0284,0.0288,0.0288,0.0299,0.03,0.03,0.0308,0.0308,0.0305,0.0306,0.0306,0.0306,0,0,0,0,0,0,0,0.0252,0.0254,0.028,0.028,0.028,0.0275,0.0277,0.0283,0.029,0.0284,0.0285,0.0288,0.0299,0.0299,0.03,0.0309,0.0305,0.0306,0.0306,0.0306,0.0355,0.0356,0,0,0,0,0,0,0.0255,0.0254,0.028,0.0281,0.0268,0.0276,0.0278,0.0284,0.029,0.0291,0.0288,0.0288,0.0298,0.0299,0.0301,0.0341,0.0306,0.0306,0.0307,0.0354,0.0355,0.0356,0,0,0,0,0,0,0.0254,0.0257,0.0279,0.0268,0.0271,0.0277,0.0284,0.0284,0.0297,0.0293,0.0294,0.0301,0.0298,0.03,0.0322,0.034,0.0307,0.0307,0.0353,0.0355,0.0356,0.0399,0,0,0,0,0,0,0.0253,0.0257,0.0266,0.0268,0.0272,0.029,0.0284,0.0285,0.0298,0.0299,0.0304,0.0305,0.0298,0.0321,0.0322,0.034,0.0308,0.0352,0.0354,0.0355,0.0396,0.0401,0.0406,0,0,0,0,0,0.0252,0.026,0.0267,0.027,0.0283,0.0291,0.0292,0.0295,0.0299,0.0306,0.0316,0.0305,0.0333,0.0322,0.0324,0.0342,0.0351,0.0353,0.0355,0.0394,0.04,0.0406,0,0,0,0,0,0,0.0245,0.0261,0.0268,0.028,0.0291,0.0292,0.0299,0.0305,0.0317,0.0323,0.0319,0.0321,0.0347,0.034,0.0328,0.0362,0.034,0.0342,0.0368,0.0375,0.0379,0.0411,0.0308,0,0,0,0,0,0.025,0.0263,0.0275,0.0286,0.0293,0.0301,0.0307,0.0312,0.0322,0.0327,0.0334,0.0343,0.0354,0.0361,0.0368,0.0388,0.0389,0.04,0.0405,0.0409,0.0436,0.0461,0.0471,0.0363,0.0363,0.0363,0,0,0.0249,0.0261,0.0268,0.0286,0.0294,0.0307,0.0305,0.032,0.0335,0.0328,0.0355,0.0362,0.0364,0.0387,0.0397,0.0385,0.0434,0.0412,0.0415,0.0441,0.0464,0.0475,0.0484,0.0365,0.0365,0.0364,0,0,0.0246,0.0268,0.0274,0.0286,0.0306,0.0319,0.0328,0.0343,0.0356,0.0381,0.0383,0.0407,0.0419,0.0429,0.0434,0.0471,0.046,0.047,0.0521,0.0544,0.0553,0.0561,0.0548,0.0555,0.0471,0.0471,0.0471,0,0.0244,0.0266,0.0277,0.0285,0.0307,0.0327,0.0346,0.0358,0.0379,0.0418,0.0396,0.0463,0.044,0.0499,0.0498,0.0483,0.0489,0.0496,0.0551,0.056,0.0568,0.0552,0.0559,0.0473,0.0473,0.0473,0.0472,0,0.0244,0.0269,0.0276,0.0303,0.032,0.0347,0.0368,0.0414,0.044,0.0457,0.0529,0.052,0.0572,0.0553,0.0528,0.0586,0.0567,0.0554,0.0537,0.0581,0.0561,0.0568,0.0477,0.0476,0.0475,0.0474,0,0,0.0231,0.0272,0.028,0.032,0.0345,0.0375,0.0419,0.0488,0.0556,0.0573,0.0647,0.0655,0.068,0.0688,0.0675,0.0677,0.0693,0.064,0.064,0.0629,0.073,0.0693,0.0696,0.0698,0.07,0.0702,0.0683,0,0.0241,0.0297,0.0295,0.0359,0.0407,0.0446,0.0484,0.0545,0.0605,0.0675,0.0699,0.0742,0.072,0.0744,0.0757,0.0715,0.0719,0.0698,0.0689,0.0689,0.0653,0.0706,0.0709,0.0688,0.0689,0.0691,0.0691,0,0.0251,0.0303,0.037,0.045,0.0469,0.051,0.0651,0.0665,0.0756,0.0802,0.0888,0.0887,0.092,0.0865,0.088,0.0875,0.0818,0.0771,0.0769,0.0734,0.0666,0.0642,0.0703,0.0702,0.0701,0.0701,0.07,0,0.0296,0.0361,0.044,0.0463,0.0535,0.0607,0.0649,0.0742,0.0784,0.0886,0.0941,0.1003,0.103,0.1001,0.0917,0.0904,0.0896,0.0861,0.0781,0.0775,0.0793,0.0784,0.0868,0.0868,0.0868,0.0868,0.0868,0,0.0333,0.0402,0.0494,0.0537,0.0638,0.0664,0.077,0.0835,0.0917,0.0944,0.1006,0.106,0.1067,0.1054,0.0962,0.0907,0.0946,0.0814,0.0787,0.0805,0.0798,0.0795,0.0787,0.0867,0.0867,0.0867,0.0867,0,0.0369,0.0427,0.0496,0.0601,0.0656,0.0713,0.0814,0.0878,0.0968,0.1014,0.1034,0.113,0.1122,0.1094,0.1031,0.0975,0.0891,0.0847,0.086,0.083,0.0738,0.0733,0.078,0.0779,0.0779,0.0778,0.0777,0,0.0387,0.0448,0.0525,0.0568,0.0628,0.0737,0.0794,0.0895,0.0937,0.1026,0.1027,0.1093,0.1116,0.1023,0.1013,0.09,0.0862,0.0826,0.0802,0.077,0.0739,0.0734,0.073,0.0776,0.0775,0.0775,0.0775,0,0.041,0.043,0.0475,0.0554,0.0634,0.0698,0.0795,0.0836,0.0889,0.0992,0.0987,0.0982,0.1,0.0981,0.0928,0.0828,0.0861,0.0816,0.0817,0.0794,0.0765,0.0733,0.073,0.0772,0.0772,0.0773,0.0773,0,0.0401,0.0409,0.0449,0.0521,0.0592,0.0629,0.0695,0.0744,0.0792,0.0875,0.0869,0.0905,0.0973,0.0944,0.0868,0.0814,0.0787,0.0725,0.073,0.0734,0.0732,0.0688,0.0672,0,0,0,0,0,0.0376,0.0389,0.0433,0.0474,0.0528,0.0574,0.0668,0.0722,0.0796,0.0748,0.0804,0.0779,0.0762,0.0816,0.0744,0.0862,0.0795,0.0779,0.0729,0.0755,0.0758,0.0762,0,0,0,0,0,0,0.0369,0.039,0.0401,0.0418,0.0443,0.0498,0.0545,0.0601,0.059,0.0662,0.066,0.0714,0.0718,0.0764,0.0719,0.0727,0.0674,0.0809,0.0806,0.0753,0.0756,0.0759,0.0764,0,0,0,0,0]},{"header":{"parameterUnit":"m.s-1","parameterCategory":2,"la1":30.2991,"la2":30.254,"lo1":-89.0895,"lo2":-89.0444,"dy":0.0017,"dx":0.0017,"nx":28,"ny":28,"refTime":"2024-12-11T03:00:00:Z","depth":"4","parameterNumber":3,"parameterNumberName":"V-component_of_CURRENTS"},"data":[0,0,0,0,0,0,0,0,0,0,0,0,0,0,0,0,0,0,0,0,0,0,0,0,0,0,0,0,0,0,0,0,0,0,0,0,0,0,0,0,0,0,0,0,0,0,0,0,0,0,0,0,0,0,0,0,0,0,0.0545,0.0545,0,0.0563,0.0563,0.0563,0.0585,0.0585,0.0586,0.0586,0.0615,0.0615,0.0616,0,0,0,0,0,0,0,0,0,0,0,0,0,0.052,0.052,0.0545,0.0545,0.0545,0.0563,0.0563,0.0564,0.0585,0.0585,0.0586,0.0586,0.0615,0.0615,0.0616,0,0,0,0,0,0,0,0,0,0,0,0,0,0.0534,0.052,0.0545,0.0558,0.0559,0.0563,0.0563,0.0564,0.0585,0.0585,0.0586,0.0586,0.0614,0.0615,0.0616,0.0611,0,0,0.0618,0.0618,0,0,0,0,0,0,0,0,0.0533,0.0535,0.0556,0.0557,0.0559,0.0572,0.0565,0.058,0.0585,0.0576,0.0586,0.0587,0.0601,0.0603,0.0605,0.0613,0.0614,0.0618,0.0619,0.0619,0.0619,0,0,0,0,0,0,0,0.0532,0.0534,0.0553,0.0556,0.0558,0.056,0.0562,0.0568,0.0586,0.0576,0.0578,0.0579,0.0602,0.0605,0.0606,0.0614,0.0618,0.0619,0.0619,0.062,0.0613,0.0612,0,0,0,0,0,0,0.0529,0.0533,0.0552,0.0553,0.0546,0.056,0.0563,0.0568,0.0586,0.0589,0.0579,0.058,0.0603,0.0605,0.0607,0.0624,0.0619,0.062,0.062,0.0613,0.0613,0.0612,0,0,0,0,0,0,0.0529,0.0531,0.0551,0.0543,0.0546,0.056,0.0565,0.0568,0.0578,0.0587,0.0591,0.0588,0.0604,0.0606,0.0615,0.0625,0.062,0.0621,0.0614,0.0613,0.0612,0.0644,0,0,0,0,0,0,0.0528,0.0531,0.0538,0.0543,0.0546,0.0559,0.0565,0.0568,0.0578,0.058,0.0596,0.0599,0.0604,0.0614,0.0615,0.0625,0.0621,0.0615,0.0614,0.0613,0.0643,0.0644,0.0644,0,0,0,0,0,0.0527,0.0536,0.0538,0.054,0.0554,0.0559,0.0561,0.0572,0.0578,0.0583,0.0591,0.0598,0.0607,0.0614,0.0616,0.0627,0.0615,0.0614,0.0613,0.0643,0.0644,0.0644,0,0,0,0,0,0,0.0535,0.0539,0.0541,0.0553,0.0557,0.0562,0.0575,0.0574,0.0584,0.0592,0.0597,0.06,0.0609,0.0606,0.0613,0.0616,0.061,0.0609,0.0632,0.0633,0.0633,0.0617,0.0622,0,0,0,0,0,0.0537,0.0545,0.0546,0.0558,0.0562,0.0568,0.0573,0.0578,0.0585,0.059,0.0598,0.0601,0.0602,0.0609,0.061,0.0617,0.0599,0.062,0.062,0.0621,0.0606,0.0588,0.0586,0.0608,0.0608,0.0608,0,0,0.0546,0.0548,0.0554,0.056,0.0569,0.0585,0.0573,0.0586,0.0602,0.0591,0.0617,0.0606,0.0602,0.061,0.0614,0.0613,0.0606,0.0619,0.062,0.0604,0.0586,0.0584,0.0582,0.0607,0.0607,0.0607,0,0,0.0572,0.0569,0.0589,0.0594,0.0604,0.0602,0.0605,0.0611,0.0617,0.063,0.0623,0.0611,0.0626,0.0617,0.0616,0.0615,0.0607,0.0616,0.0613,0.0597,0.0595,0.0593,0.0576,0.0572,0.062,0.062,0.062,0,0.0588,0.0609,0.0595,0.062,0.0632,0.0612,0.0641,0.064,0.0646,0.0635,0.0644,0.0613,0.0628,0.0606,0.0615,0.0619,0.0603,0.062,0.0599,0.0597,0.0594,0.0577,0.0572,0.0621,0.0621,0.0621,0.0621,0,0.0628,0.0652,0.0665,0.0688,0.0694,0.0712,0.0707,0.0689,0.0686,0.0683,0.0654,0.0644,0.0616,0.0623,0.0631,0.0609,0.0601,0.0603,0.0603,0.0594,0.0576,0.0571,0.0623,0.0623,0.0622,0.0622,0,0,0.0657,0.0689,0.0696,0.0708,0.0732,0.0727,0.0736,0.0722,0.0703,0.069,0.0668,0.0659,0.0623,0.0615,0.0599,0.0589,0.0583,0.0594,0.0593,0.0585,0.0541,0.0512,0.0504,0.0585,0.0584,0.0583,0.0538,0,0.07,0.0731,0.0755,0.0791,0.0799,0.0785,0.0793,0.077,0.0744,0.0713,0.0667,0.0654,0.0631,0.0615,0.0594,0.0586,0.0569,0.0594,0.0541,0.0539,0.0522,0.0497,0.058,0.0534,0.0533,0.0532,0.0532,0,0.0736,0.0743,0.0785,0.0803,0.0812,0.0828,0.0783,0.0803,0.0751,0.0731,0.0667,0.0639,0.0597,0.0597,0.0534,0.055,0.0543,0.0535,0.0533,0.0487,0.05,0.054,0.0522,0.0523,0.0524,0.0524,0.0525,0,0.0719,0.0764,0.0786,0.0799,0.0823,0.0818,0.0824,0.0787,0.079,0.0736,0.0711,0.0639,0.0597,0.0568,0.0539,0.0542,0.0486,0.0492,0.0445,0.0443,0.0472,0.0474,0.045,0.045,0.045,0.0451,0.0451,0,0.0739,0.0753,0.0764,0.0783,0.0789,0.0809,0.0821,0.0794,0.0774,0.079,0.0721,0.0676,0.0589,0.0542,0.0533,0.0463,0.0474,0.0426,0.0422,0.0486,0.0491,0.0469,0.0471,0.0449,0.0449,0.045,0.045,0,0.0717,0.0741,0.0778,0.08,0.0795,0.0803,0.0836,0.0835,0.0808,0.0812,0.0802,0.0689,0.0618,0.0543,0.0487,0.0438,0.0407,0.0388,0.0456,0.0461,0.0375,0.038,0.031,0.0308,0.0307,0.0306,0.0305,0,0.0707,0.0715,0.0782,0.0805,0.0821,0.083,0.0848,0.0848,0.086,0.083,0.0831,0.0724,0.0661,0.053,0.0456,0.0384,0.0379,0.0345,0.0348,0.0353,0.0357,0.0364,0.037,0.0303,0.0302,0.0302,0.0302,0,0.0693,0.0736,0.0771,0.0808,0.0841,0.0889,0.0906,0.0902,0.0932,0.0898,0.0843,0.0749,0.064,0.0517,0.0438,0.0405,0.0357,0.0331,0.0333,0.0336,0.0344,0.0351,0.0359,0.0297,0.0298,0.0298,0.0298,0,0.0689,0.0718,0.0781,0.0803,0.0861,0.0924,0.0941,0.0943,0.0951,0.0911,0.0893,0.0783,0.069,0.0528,0.0489,0.0409,0.0383,0.0363,0.0363,0.0367,0.0391,0.0411,0.0367,0,0,0,0,0,0.0684,0.0709,0.075,0.0815,0.0879,0.0925,0.0968,0.0988,0.0993,0.0965,0.0928,0.085,0.0689,0.0593,0.0509,0.0464,0.0376,0.0361,0.0356,0.0272,0.0277,0.0293,0,0,0,0,0,0,0.0672,0.0726,0.0749,0.0813,0.0859,0.0946,0.1,0.1015,0.0987,0.0963,0.0871,0.082,0.0658,0.0743,0.0504,0.0474,0.0456,0.0281,0.0279,0.0269,0.0274,0.0278,0.0296,0,0,0,0,0]}]]